When you browse on this site, cookies collect data to enhance your experience and personalize the content and advertising you see.
Visit our Privacy Policy to learn more. By continuing to use the site, you agree to this use of cookies and data.

Tiempo cada hora Kanye

Hoy, 22 Septiembre, Martes

Tiempo Temperatura Precipitaciones Viento Presión Humedad
00:00 +17°C° 0 mm 5 mps 653 mmHg 12%
01:00 +17°C° 0 mm 4 mps 652 mmHg 13%
02:00 +15°C° 0 mm 4 mps 653 mmHg 14%
03:00 +15°C° 0 mm 5 mps 653 mmHg 26%
04:00 +15°C° 0 mm 6 mps 653 mmHg 38%
05:00 +15°C° 0 mm 7 mps 653 mmHg 51%
06:00 +15°C° 0 mm 8 mps 654 mmHg 55%
07:00 +15°C° 0 mm 9 mps 655 mmHg 60%
08:00 +14°C° 0 mm 10 mps 655 mmHg 64%
09:00 +16°C° 0 mm 10 mps 656 mmHg 60%
10:00 +17°C° 0 mm 10 mps 656 mmHg 56%
11:00 +18°C° 0 mm 10 mps 657 mmHg 53%
12:00 +19°C° 0 mm 10 mps 656 mmHg 49%
13:00 +21°C° 0 mm 9 mps 656 mmHg 45%
14:00 +23°C° 0 mm 8 mps 656 mmHg 41%
15:00 +22°C° 0 mm 8 mps 656 mmHg 41%
16:00 +22°C° 0 mm 7 mps 656 mmHg 41%
17:00 +22°C° 0 mm 7 mps 656 mmHg 41%
18:00 +21°C° 0 mm 6 mps 656 mmHg 47%
19:00 +19°C° 0 mm 5 mps 656 mmHg 53%
20:00 +16°C° 0 mm 5 mps 656 mmHg 58%
21:00 +15°C° 0 mm 6 mps 656 mmHg 61%
22:00 +15°C° 0 mm 6 mps 656 mmHg 63%
23:00 +14°C° 0 mm 7 mps 656 mmHg 65%

Mañana, 23 Septiembre, Miércoles

Tiempo Temperatura Precipitaciones Viento Presión Humedad
00:00 +12°C° 0 mm 7 mps 656 mmHg 68%
01:00 +11°C° 0 mm 7 mps 655 mmHg 70%
02:00 +11°C° 0 mm 7 mps 654 mmHg 73%
03:00 +10°C° 0 mm 7 mps 654 mmHg 76%
04:00 +9°C° 0 mm 7 mps 654 mmHg 79%
05:00 +9°C° 0 mm 6 mps 653 mmHg 82%
06:00 +10°C° 0 mm 7 mps 654 mmHg 77%
07:00 +11°C° 0 mm 7 mps 655 mmHg 71%
08:00 +12°C° 0 mm 8 mps 656 mmHg 65%
09:00 +16°C° 0 mm 7 mps 656 mmHg 55%
10:00 +20°C° 0 mm 7 mps 657 mmHg 44%
11:00 +23°C° 0 mm 6 mps 657 mmHg 34%
12:00 +26°C° 0 mm 6 mps 657 mmHg 30%
13:00 +28°C° 0 mm 5 mps 656 mmHg 26%
14:00 +30°C° 0 mm 5 mps 656 mmHg 22%
15:00 +30°C° 0 mm 4 mps 655 mmHg 22%
16:00 +30°C° 0 mm 4 mps 655 mmHg 22%
17:00 +30°C° 0 mm 4 mps 654 mmHg 21%
18:00 +27°C° 0 mm 3 mps 654 mmHg 26%
19:00 +24°C° 0 mm 3 mps 654 mmHg 30%
20:00 +21°C° 0 mm 3 mps 653 mmHg 35%
21:00 +20°C° 0 mm 3 mps 653 mmHg 37%
22:00 +19°C° 0 mm 3 mps 653 mmHg 39%
23:00 +18°C° 0 mm 3 mps 653 mmHg 41%

Pasado mañana, 24 Septiembre, Jueves

Tiempo Temperatura Precipitaciones Viento Presión Humedad
00:00 +18°C° 0 mm 3 mps 652 mmHg 43%
01:00 +17°C° 0 mm 3 mps 652 mmHg 45%
02:00 +16°C° 0 mm 3 mps 651 mmHg 47%
03:00 +16°C° 0 mm 3 mps 651 mmHg 49%
04:00 +14°C° 0 mm 3 mps 651 mmHg 51%
05:00 +14°C° 0 mm 3 mps 651 mmHg 53%
06:00 +15°C° 0 mm 4 mps 652 mmHg 49%
07:00 +17°C° 0 mm 5 mps 653 mmHg 44%
08:00 +20°C° 0 mm 5 mps 653 mmHg 40%
09:00 +23°C° 0 mm 6 mps 654 mmHg 34%
10:00 +27°C° 0 mm 6 mps 655 mmHg 27%
11:00 +30°C° 0 mm 6 mps 655 mmHg 21%
12:00 +33°C° 0 mm 5 mps 655 mmHg 20%
13:00 +34°C° 0 mm 4 mps 654 mmHg 18%
14:00 +35°C° 0 mm 4 mps 654 mmHg 16%
15:00 +35°C° 0 mm 3 mps 653 mmHg 16%
16:00 +34°C° 0 mm 3 mps 652 mmHg 16%
17:00 +34°C° 0 mm 2 mps 652 mmHg 16%
18:00 +30°C° 0 mm 2 mps 651 mmHg 20%
19:00 +27°C° 0 mm 2 mps 650 mmHg 24%
20:00 +23°C° 0 mm 2 mps 650 mmHg 28%
21:00 +23°C° 0 mm 2 mps 650 mmHg 29%
22:00 +23°C° 0 mm 2 mps 650 mmHg 30%
23:00 +22°C° 0 mm 3 mps 650 mmHg 31%

25 Septiembre, Viernes

Tiempo Temperatura Precipitaciones Viento Presión Humedad
00:00 +21°C° 0 mm 3 mps 650 mmHg 31%
01:00 +20°C° 0 mm 3 mps 649 mmHg 31%
02:00 +20°C° 0 mm 4 mps 649 mmHg 31%
03:00 +20°C° 0 mm 4 mps 649 mmHg 31%
04:00 +20°C° 0 mm 3 mps 650 mmHg 31%
05:00 +20°C° 0 mm 3 mps 650 mmHg 30%
06:00 +22°C° 0 mm 3 mps 651 mmHg 28%
07:00 +24°C° 0 mm 3 mps 652 mmHg 25%
08:00 +26°C° 0 mm 3 mps 652 mmHg 23%
09:00 +29°C° 0 mm 4 mps 653 mmHg 20%
10:00 +33°C° 0 mm 4 mps 653 mmHg 17%
11:00 +35°C° 0 mm 5 mps 653 mmHg 15%
12:00 +36°C° 0 mm 5 mps 652 mmHg 14%
13:00 +36°C° 0 mm 6 mps 651 mmHg 14%
14:00 +36°C° 0 mm 6 mps 650 mmHg 13%
15:00 +36°C° 0 mm 5 mps 650 mmHg 13%
16:00 +36°C° 0 mm 5 mps 649 mmHg 13%
17:00 +36°C° 0 mm 5 mps 649 mmHg 14%
18:00 +33°C° 0 mm 4 mps 648 mmHg 18%
19:00 +29°C° 0 mm 4 mps 648 mmHg 22%
20:00 +26°C° 0 mm 3 mps 648 mmHg 26%
21:00 +25°C° 0 mm 2 mps 648 mmHg 27%
22:00 +25°C° 0 mm 2 mps 647 mmHg 29%
23:00 +24°C° 0 mm 1 mps 647 mmHg 30%

26 Septiembre, Sábado

Tiempo Temperatura Precipitaciones Viento Presión Humedad
00:00 +24°C° 0 mm 1 mps 647 mmHg 30%
01:00 +23°C° 0 mm 1 mps 647 mmHg 30%
02:00 +23°C° 0 mm 2 mps 647 mmHg 30%
03:00 +21°C° 0 mm 2 mps 647 mmHg 31%
04:00 +20°C° 0 mm 3 mps 647 mmHg 32%
05:00 +19°C° 0 mm 4 mps 647 mmHg 34%
06:00 +20°C° 0 mm 4 mps 647 mmHg 26%
07:00 +21°C° 0 mm 4 mps 648 mmHg 19%
08:00 +22°C° 0 mm 4 mps 649 mmHg 12%
09:00 +25°C° 0 mm 5 mps 649 mmHg 10%
10:00 +28°C° 0 mm 5 mps 650 mmHg 9%
11:00 +32°C° 0 mm 5 mps 650 mmHg 7%
12:00 +33°C° 0 mm 6 mps 650 mmHg 6%
13:00 +33°C° 0 mm 7 mps 650 mmHg 6%
14:00 +34°C° 0 mm 7 mps 649 mmHg 5%
15:00 +33°C° 0 mm 7 mps 649 mmHg 5%
16:00 +32°C° 0 mm 7 mps 649 mmHg 5%
17:00 +30°C° 0 mm 7 mps 648 mmHg 5%
18:00 +27°C° 0 mm 6 mps 648 mmHg 7%
19:00 +23°C° 0 mm 5 mps 648 mmHg 9%
20:00 +19°C° 0 mm 4 mps 648 mmHg 12%
21:00 +18°C° 0 mm 4 mps 648 mmHg 12%
22:00 +17°C° 0 mm 4 mps 648 mmHg 12%
23:00 +15°C° 0 mm 4 mps 648 mmHg 12%

27 Septiembre, Domingo

Tiempo Temperatura Precipitaciones Viento Presión Humedad
00:00 +14°C° 0 mm 4 mps 648 mmHg 13%
01:00 +13°C° 0 mm 4 mps 648 mmHg 15%
02:00 +12°C° 0 mm 4 mps 647 mmHg 16%
03:00 +11°C° 0 mm 4 mps 647 mmHg 17%
04:00 +10°C° 0 mm 4 mps 647 mmHg 18%
05:00 +10°C° 0 mm 4 mps 647 mmHg 19%
06:00 +12°C° 0 mm 4 mps 648 mmHg 17%
07:00 +14°C° 0 mm 4 mps 649 mmHg 15%
08:00 +16°C° 0 mm 5 mps 650 mmHg 13%
09:00 +20°C° 0 mm 5 mps 650 mmHg 10%
10:00 +25°C° 0 mm 4 mps 651 mmHg 8%
11:00 +28°C° 0 mm 4 mps 652 mmHg 5%
12:00 +29°C° 0 mm 4 mps 651 mmHg 4%
13:00 +30°C° 0 mm 4 mps 651 mmHg 4%
14:00 +32°C° 0 mm 4 mps 650 mmHg 3%
15:00 +32°C° 0 mm 5 mps 650 mmHg 4%
16:00 +30°C° 0 mm 5 mps 650 mmHg 4%
17:00 +29°C° 0 mm 5 mps 649 mmHg 4%
18:00 +26°C° 0 mm 5 mps 649 mmHg 6%
19:00 +22°C° 0 mm 4 mps 649 mmHg 8%
20:00 +18°C° 0 mm 4 mps 648 mmHg 10%
21:00 +18°C° 0 mm 4 mps 649 mmHg 11%
22:00 +17°C° 0 mm 4 mps 649 mmHg 11%
23:00 +15°C° 0 mm 4 mps 650 mmHg 12%
Mostrar más